EW4595 Weather Reports


Display with metric or nautical units.
time (UTC)temp
F
wind
direction
speed
MPH
gust
MPH
rain 1hr
in
rain 24hr
in
rain mn
in
humidity
%
barometer
mb
20260504015204 55 5 2.0 4.0 0.00 0.00 0.00 72 1011.8
20260504015104 55 5 2.0 4.0 0.00 0.00 0.00 72 1011.7
20260504014905 55 18 2.0 4.0 0.00 0.00 0.00 72 1011.5
20260504014803 55 22 2.0 4.0 0.00 0.00 0.00 72 1011.6
20260504014704 55 17 2.0 4.0 0.00 0.00 0.00 72 1011.3
20260504014604 55 25 2.0 4.0 0.00 0.00 0.00 72 1011.5
20260504014504 55 30 2.0 4.0 0.00 0.00 0.00 72 1011.2
20260504014403 55 35 2.0 4.0 0.00 0.00 0.00 72 1011.5
20260504014305 55 29 2.0 4.0 0.00 0.00 0.00 73 1011.3
20260504014203 55 21 2.0 4.0 0.00 0.00 0.00 73 1011.4
20260504014105 55 13 2.0 4.0 0.00 0.00 0.00 72 1011.5
20260504014004 55 4 2.0 4.0 0.00 0.00 0.00 73 1011.5
20260504013914 55 6 2.0 4.0 0.00 0.00 0.00 73 1011.5
20260504013904 55 6 1.0 4.0 0.00 0.00 0.00 73 1011.4
20260504013805 55 8 2.0 4.0 0.00 0.00 0.00 73 1011.5
20260504013606 55 20 1.0 4.0 0.00 0.00 0.00 73 1011.4
20260504013514 55 29 2.0 4.0 0.00 0.00 0.00 73 1011.4
20260504013503 55 34 0.0 4.0 0.00 0.00 0.00 72 1011.5
20260504013403 56 37 1.0 4.0 0.00 0.00 0.00 72 1011.5
20260504013204 56 38 2.0 4.0 0.00 0.00 0.00 72 1011.7
20260504013105 56 45 2.0 4.0 0.00 0.00 0.00 72 1011.5
20260504013004 56 43 2.0 4.0 0.00 0.00 0.00 72 1011.9
20260504012903 56 32 2.0 4.0 0.00 0.00 0.00 72 1011.6
20260504012708 56 28 2.0 4.0 0.00 0.00 0.00 72 1012.0
20260504012608 56 30 2.0 4.0 0.00 0.00 0.00 72 1011.6
20260504012503 56 29 1.0 4.0 0.00 0.00 0.00 72 1011.9
20260504012418 56 34 1.0 4.0 0.00 0.00 0.00 72 1011.5
20260504012405 56 35 1.0 4.0 0.00 0.00 0.00 72 1011.5
20260504012304 56 39 2.0 4.0 0.00 0.00 0.00 73 1011.9
20260504012104 56 27 2.0 4.0 0.00 0.00 0.00 73 1011.6
20260504012004 56 28 1.0 4.0 0.00 0.00 0.00 73 1011.8
20260504011904 56 28 2.0 4.0 0.00 0.00 0.00 73 1011.7
20260504011706 55 27 2.0 4.0 0.00 0.00 0.00 74 1011.5
20260504011604 55 27 2.0 4.0 0.00 0.00 0.00 74 1011.6
20260504011505 56 22 0.0 2.0 0.00 0.00 0.00 74 1011.6
20260504011404 56 17 2.0 4.0 0.00 0.00 0.00 74 1011.7
20260504011318 56 14 1.0 4.0 0.00 0.00 0.00 74 1011.7
20260504011305 56 15 1.0 4.0 0.00 0.00 0.00 74 1011.7
20260504011205 56 22 1.0 4.0 0.00 0.00 0.00 74 1011.7
20260504011115 56 32 1.0 4.0 0.00 0.00 0.00 74 1011.6
20260504011005 56 28 1.0 4.0 0.00 0.00 0.00 74 1011.4
20260504010804 56 46 2.0 4.0 0.00 0.00 0.00 74 1012.0
20260504010705 56 41 2.0 4.0 0.00 0.00 0.00 74 1011.6
20260504010604 56 32 2.0 4.0 0.00 0.00 0.00 74 1011.6
20260504010506 56 33 1.0 4.0 0.00 0.00 0.00 74 1011.8
20260504010405 56 31 1.0 4.0 0.00 0.00 0.00 74 1011.6
20260504010304 56 21 1.0 4.0 0.00 0.00 0.00 74 1011.4
20260504010204 56 19 3.0 4.0 0.00 0.00 0.00 74 1011.2
20260504010116 56 24 1.0 4.0 0.00 0.00 0.00 74 1011.5
20260504010104 56 25 1.0 4.0 0.00 0.00 0.00 74 1011.5
20260504010014 56 30 2.0 4.0 0.00 0.00 0.00 74 1011.4
20260504010004 56 32 2.0 4.0 0.00 0.00 0.00 74 1011.4
20260504005918 56 37 2.0 4.0 0.00 0.00 0.00 74 1011.4
20260504005817 56 55 2.0 4.0 0.00 0.00 0.00 75 1011.3
20260504005504 56 64 2.0 4.0 0.00 0.00 0.00 75 1011.5
20260504005405 56 56 2.0 4.0 0.00 0.00 0.00 75 1011.3
20260504005305 56 40 2.0 4.0 0.00 0.00 0.00 75 1011.5
20260504005204 56 31 2.0 6.0 0.00 0.00 0.00 76 1011.6
20260504005104 56 42 2.0 6.0 0.00 0.00 0.00 75 1011.5
20260504005004 56 38 2.0 6.0 0.00 0.00 0.00 75 1011.3
20260504004903 56 37 2.0 6.0 0.00 0.00 0.00 75 1011.1
20260504004803 56 34 2.0 6.0 0.00 0.00 0.00 75 1011.6
20260504004703 56 42 4.0 6.0 0.00 0.00 0.00 75 1011.3
20260504004605 56 39 1.0 6.0 0.00 0.00 0.00 75 1011.5
20260504004503 56 41 4.0 6.0 0.00 0.00 0.00 75 1011.3
20260504004406 56 50 2.0 6.0 0.00 0.00 0.00 74 1011.6
20260504004316 56 57 3.0 6.0 0.00 0.00 0.00 74 1011.5
20260504004304 56 57 3.0 6.0 0.00 0.00 0.00 74 1011.3
20260504004203 56 55 2.0 6.0 0.00 0.00 0.00 74 1011.3
20260504004016 56 38 2.0 6.0 0.00 0.00 0.00 74 1011.4
20260504004005 56 35 2.0 6.0 0.00 0.00 0.00 74 1011.4
20260504003907 56 28 4.0 6.0 0.00 0.00 0.00 74 1011.3
20260504003819 56 21 2.0 6.0 0.00 0.00 0.00 74 1011.4
20260504003705 56 22 2.0 6.0 0.00 0.00 0.00 74 1011.4
20260504003503 56 43 2.0 6.0 0.00 0.00 0.00 74 1011.6
20260504003405 56 53 2.0 4.0 0.00 0.00 0.00 74 1011.4
20260504003305 56 56 1.0 4.0 0.00 0.00 0.00 74 1011.7
20260504003119 56 47 2.0 4.0 0.00 0.00 0.00 74 1011.5
20260504003104 57 42 2.0 4.0 0.00 0.00 0.00 74 1011.4
20260504003006 57 36 2.0 4.0 0.00 0.00 0.00 74 1011.6
20260504002804 57 22 4.0 4.0 0.00 0.00 0.00 74 1011.7
20260504002718 57 28 2.0 4.0 0.00 0.00 0.00 74 1011.6
20260504002704 57 30 1.0 4.0 0.00 0.00 0.00 74 1011.8
20260504002604 57 34 2.0 4.0 0.00 0.00 0.00 74 1011.7
20260504002404 57 49 2.0 4.0 0.00 0.00 0.00 74 1011.5
20260504002318 57 53 2.0 4.0 0.00 0.00 0.00 74 1011.7
20260504002304 57 56 1.0 4.0 0.00 0.00 0.00 74 1011.7
20260504002203 57 57 1.0 4.0 0.00 0.00 0.00 74 1011.7
20260504002018 57 57 2.0 4.0 0.00 0.00 0.00 74 1011.7
20260504002004 57 58 2.0 4.0 0.00 0.00 0.00 74 1011.7
20260504001904 57 59 2.0 4.0 0.00 0.00 0.00 73 1012.1
20260504001704 58 65 2.0 4.0 0.00 0.00 0.00 73 1011.7
20260504001606 58 72 2.0 4.0 0.00 0.00 0.00 73 1011.8
20260504001504 58 63 1.0 4.0 0.00 0.00 0.00 72 1011.7
20260504001405 58 57 1.0 4.0 0.00 0.00 0.00 72 1011.9
20260504001304 58 51 1.0 4.0 0.00 0.00 0.00 72 1011.9
20260504001217 58 46 1.0 4.0 0.00 0.00 0.00 72 1011.8
20260504001204 58 44 1.0 4.0 0.00 0.00 0.00 72 1011.8
20260504001103 58 29 1.0 4.0 0.00 0.00 0.00 73 1011.8
20260504000903 57 59 2.0 4.0 0.00 0.00 0.00 73 1011.9
20260504000803 57 67 0.0 2.0 0.00 0.00 0.00 73 1011.8
20260504000704 57 67 0.0 2.0 0.00 0.00 0.00 73 1011.9
20260504000604 57 67 0.0 2.0 0.00 0.00 0.00 73 1011.9
20260504000503 57 67 0.0 2.0 0.00 0.00 0.00 73 1011.8
20260504000404 57 67 1.0 2.0 0.00 0.00 0.00 73 1011.9
20260504000304 57 67 0.0 2.0 0.00 0.00 0.00 73 1012.0
20260504000204 57 67 0.0 2.0 0.00 0.00 0.00 72 1011.9
20260504000104 57 67 0.0 2.0 0.00 0.00 0.00 72 1011.8
20260503235903 57 67 0.0 2.0 0.00 0.00 0.00 72 1011.9
20260503235805 57 67 0.0 2.0 0.00 0.00 0.00 72 1011.8
20260503235704 58 67 0.0 2.0 0.00 0.00 0.00 72 1011.9
20260503235603 58 67 0.0 2.0 0.00 0.00 0.00 72 1012.0
20260503235504 58 67 1.0 2.0 0.00 0.00 0.00 72 1011.9
20260503235405 57 67 1.0 2.0 0.00 0.00 0.00 72 1012.0
20260503235305 57 67 1.0 2.0 0.00 0.00 0.00 72 1011.8
20260503235203 58 67 1.0 2.0 0.00 0.00 0.00 72 1011.9
20260503235103 58 67 1.0 2.0 0.00 0.00 0.00 72 1012.0
20260503235003 58 67 1.0 2.0 0.00 0.00 0.00 71 1012.0
20260503234905 58 67 0.0 2.0 0.00 0.00 0.00 71 1011.8
20260503234813 58 67 0.0 2.0 0.00 0.00 0.00 71 1012.2
20260503234704 58 67 0.0 2.0 0.00 0.00 0.00 71 1012.0
20260503234615 58 67 0.0 2.0 0.00 0.00 0.00 71 1012.1
20260503234503 58 67 0.0 2.0 0.00 0.00 0.00 71 1012.2
20260503234307 58 58 0.0 2.0 0.00 0.00 0.00 71 1012.4
20260503234204 58 57 1.0 2.0 0.00 0.00 0.00 71 1012.3
20260503234103 58 52 1.0 2.0 0.00 0.00 0.00 71 1012.1
20260503234004 58 46 1.0 2.0 0.00 0.00 0.00 71 1012.1
20260503233904 58 45 0.0 2.0 0.00 0.00 0.00 70 1012.2
20260503233805 58 45 0.0 2.0 0.00 0.00 0.00 70 1011.8
20260503233712 58 45 0.0 2.0 0.00 0.00 0.00 70 1012.1
20260503233504 58 45 0.0 2.0 0.00 0.00 0.00 70 1011.9
20260503233404 58 45 0.0 2.0 0.00 0.00 0.00 70 1011.6
20260503233305 58 42 1.0 2.0 0.00 0.00 0.00 69 1011.7
20260503233204 58 34 1.0 2.0 0.00 0.00 0.00 69 1011.9
20260503233104 58 33 0.0 2.0 0.00 0.00 0.00 69 1012.0
20260503233004 58 31 0.0 2.0 0.00 0.00 0.00 69 1011.8
20260503232904 58 34 0.0 2.0 0.00 0.00 0.00 69 1011.8
20260503232803 59 38 0.0 2.0 0.00 0.00 0.00 69 1011.6
20260503232604 59 44 0.0 2.0 0.00 0.00 0.00 68 1011.5
20260503232516 59 40 0.0 2.0 0.00 0.00 0.00 68 1011.6
20260503232504 59 39 0.0 2.0 0.00 0.00 0.00 68 1011.6
20260503232403 59 34 0.0 2.0 0.00 0.00 0.00 68 1011.6
20260503232203 59 27 1.0 2.0 0.00 0.00 0.00 68 1011.5
20260503232104 59 22 1.0 2.0 0.00 0.00 0.00 67 1011.5
20260503232005 59 22 1.0 2.0 0.00 0.00 0.00 67 1011.6
20260503231805 59 360 0.0 2.0 0.00 0.00 0.00 67 1011.4
20260503231704 59 360 0.0 2.0 0.00 0.00 0.00 67 1011.3
20260503231405 59 360 0.0 2.0 0.00 0.00 0.00 65 1011.2
20260503231304 59 360 1.0 4.0 0.00 0.00 0.00 65 1011.3
20260503231204 59 360 1.0 4.0 0.00 0.00 0.00 65 1011.3
20260503231116 59 5 1.0 4.0 0.00 0.00 0.00 65 1011.0
20260503231105 60 5 2.0 4.0 0.00 0.00 0.00 64 1011.5
20260503231008 60 5 0.0 4.0 0.00 0.00 0.00 64 1011.2
20260503230703 60 359 2.0 4.0 0.00 0.00 0.00 63 1011.2
20260503230603 60 355 2.0 6.0 0.00 0.00 0.00 63 1011.2
20260503230518 60 358 2.0 7.0 0.00 0.00 0.00 63 1011.0
20260503230505 60 360 2.0 7.0 0.00 0.00 0.00 63 1011.0
20260503230416 60 6 3.0 7.0 0.00 0.00 0.00 63 1011.1
20260503230404 60 9 3.0 7.0 0.00 0.00 0.00 63 1011.1
20260503230117 60 15 3.0 7.0 0.00 0.00 0.00 62 1011.0
20260503230104 60 17 3.0 7.0 0.00 0.00 0.00 62 1011.0
20260503230016 60 17 4.0 7.0 0.00 0.00 0.00 62 1010.9
20260503230006 60 15 4.0 7.0 0.00 0.00 0.00 62 1010.9
20260503225704 60 21 3.0 4.0 0.00 0.00 0.00 62 1011.1
20260503225605 60 20 2.0 4.0 0.00 0.00 0.00 62 1010.9
20260503225404 60 30 2.0 4.0 0.00 0.00 0.00 63 1011.0
20260503225316 60 26 2.0 4.0 0.00 0.00 0.00 63 1011.0
20260503225309 60 24 2.0 4.0 0.00 0.00 0.00 63 1011.0
20260503225204 60 23 2.0 4.0 0.00 0.00 0.00 63 1010.9
20260503225113 60 24 2.0 4.0 0.00 0.00 0.00 63 1010.8
20260503225004 60 22 1.0 4.0 0.00 0.00 0.00 63 1010.9
20260503224804 60 27 2.0 4.0 0.00 0.00 0.00 63 1010.9
20260503224717 60 33 3.0 4.0 0.00 0.00 0.00 63 1010.9
20260503224703 60 35 0.0 4.0 0.00 0.00 0.00 63 1011.2
20260503224604 60 37 1.0 4.0 0.00 0.00 0.00 63 1010.9
20260503224413 60 41 2.0 4.0 0.00 0.00 0.00 63 1010.8
20260503224303 61 35 2.0 4.0 0.00 0.00 0.00 63 1010.9
20260503224215 61 36 2.0 4.0 0.00 0.00 0.00 63 1011.1
20260503224107 61 29 2.0 4.0 0.00 0.00 0.00 63 1010.8
20260503223903 61 33 2.0 2.0 0.00 0.00 0.00 62 1011.2
20260503223804 61 37 2.0 2.0 0.00 0.00 0.00 61 1011.1
20260503223705 61 29 1.0 2.0 0.00 0.00 0.00 60 1011.0
20260503223516 61 18 2.0 4.0 0.00 0.00 0.00 60 1011.1
20260503223504 61 16 1.0 4.0 0.00 0.00 0.00 59 1011.1
20260503223405 61 18 1.0 4.0 0.00 0.00 0.00 59 1011.2
20260503223216 61 19 1.0 6.0 0.00 0.00 0.00 58 1011.3
20260503223203 61 18 1.0 6.0 0.00 0.00 0.00 58 1011.3
20260503223106 62 10 3.0 6.0 0.00 0.00 0.00 57 1011.2
20260503222903 62 4 3.0 6.0 0.00 0.00 0.00 57 1011.4
20260503222804 62 358 3.0 6.0 0.00 0.00 0.00 56 1011.3
20260503222704 62 360 2.0 4.0 0.00 0.00 0.00 56 1011.2
20260503222603 62 359 2.0 4.0 0.00 0.00 0.00 56 1011.3
20260503222506 62 358 2.0 4.0 0.00 0.00 0.00 56 1011.2
20260503222403 62 359 2.0 4.0 0.00 0.00 0.00 56 1011.5
20260503222305 62 358 3.0 4.0 0.00 0.00 0.00 56 1011.3
20260503222209 62 354 2.0 4.0 0.00 0.00 0.00 56 1011.2
20260503222105 62 355 2.0 4.0 0.00 0.00 0.00 56 1011.2
20260503222015 62 360 2.0 4.0 0.00 0.00 0.00 56 1011.5
20260503222003 62 1 2.0 4.0 0.00 0.00 0.00 56 1011.5
20260503221918 62 4 2.0 4.0 0.00 0.00 0.00 56 1011.4
20260503221903 62 6 1.0 4.0 0.00 0.00 0.00 56 1011.5
20260503221603 62 8 2.0 4.0 0.00 0.00 0.00 56 1011.5
20260503221523 62 6 2.0 4.0 0.00 0.00 0.00 56 1011.4
20260503221503 62 2 2.0 4.0 0.00 0.00 0.00 55 1011.4
20260503221403 62 357 2.0 4.0 0.00 0.00 0.00 55 1011.4
20260503221205 62 357 2.0 4.0 0.00 0.00 0.00 55 1011.3
20260503221103 62 356 2.0 4.0 0.00 0.00 0.00 55 1011.4
20260503221004 62 357 2.0 4.0 0.00 0.00 0.00 55 1011.4
20260503220905 62 10 2.0 4.0 0.00 0.00 0.00 55 1011.6
20260503220803 62 7 2.0 4.0 0.00 0.00 0.00 55 1011.6
20260503220706 62 4 2.0 4.0 0.00 0.00 0.00 54 1011.7
20260503220604 62 7 2.0 4.0 0.00 0.00 0.00 54 1011.5
20260503220505 62 8 2.0 4.0 0.00 0.00 0.00 54 1011.6
20260503220404 62 3 2.0 4.0 0.00 0.00 0.00 54 1011.7
20260503220304 62 6 2.0 4.0 0.00 0.00 0.00 54 1011.8
20260503220205 62 6 2.0 4.0 0.00 0.00 0.00 54 1011.8
20260503220118 62 2 3.0 6.0 0.00 0.00 0.00 54 1011.6
20260503220104 62 359 3.0 6.0 0.00 0.00 0.00 54 1011.6
20260503220004 62 355 2.0 6.0 0.00 0.00 0.00 54 1011.5
20260503215915 62 351 2.0 6.0 0.00 0.00 0.00 54 1011.6
20260503215804 62 346 2.0 6.0 0.00 0.00 0.00 54 1011.7
20260503215505 63 341 4.0 6.0 0.00 0.00 0.00 54 1011.6
20260503215404 63 342 4.0 6.0 0.00 0.00 0.00 54 1011.7
20260503215305 63 342 4.0 6.0 0.00 0.00 0.00 53 1011.7
20260503215207 63 342 3.0 6.0 0.00 0.00 0.00 53 1011.5
20260503215119 63 345 3.0 6.0 0.00 0.00 0.00 53 1011.5
20260503215103 63 346 3.0 6.0 0.00 0.00 0.00 53 1011.6
20260503215004 63 342 2.0 4.0 0.00 0.00 0.00 53 1011.5
20260503214803 63 352 2.0 4.0 0.00 0.00 0.00 53 1011.8
20260503214706 63 359 2.0 4.0 0.00 0.00 0.00 53 1011.6
20260503214604 63 359 2.0 4.0 0.00 0.00 0.00 53 1011.7
20260503214504 63 2 2.0 4.0 0.00 0.00 0.00 53 1011.6
20260503214406 63 1 1.0 4.0 0.00 0.00 0.00 53 1011.9
20260503214304 63 356 2.0 4.0 0.00 0.00 0.00 53 1011.8
20260503214205 63 354 2.0 6.0 0.00 0.00 0.00 53 1011.7
20260503214105 63 354 2.0 6.0 0.00 0.00 0.00 52 1011.6
20260503214003 63 351 2.0 6.0 0.00 0.00 0.00 52 1011.7
20260503213904 63 352 3.0 6.0 0.00 0.00 0.00 52 1011.7
20260503213804 63 356 2.0 6.0 0.00 0.00 0.00 52 1011.8
20260503213705 63 359 4.0 6.0 0.00 0.00 0.00 52 1011.8
20260503213618 63 2 2.0 6.0 0.00 0.00 0.00 52 1011.8
20260503213603 63 1 2.0 6.0 0.00 0.00 0.00 52 1011.8
20260503213504 63 1 2.0 6.0 0.00 0.00 0.00 51 1011.8
20260503213305 63 3 2.0 4.0 0.00 0.00 0.00 51 1011.9
20260503213205 63 3 2.0 4.0 0.00 0.00 0.00 51 1011.8
20260503213104 63 353 2.0 8.0 0.00 0.00 0.00 51 1011.8
20260503213004 63 352 2.0 8.0 0.00 0.00 0.00 51 1012.0
20260503212905 64 351 2.0 8.0 0.00 0.00 0.00 51 1011.9
20260503212803 64 351 3.0 8.0 0.00 0.00 0.00 51 1012.0
20260503212703 64 346 4.0 8.0 0.00 0.00 0.00 51 1011.7
20260503212603 64 350 2.0 7.0 0.00 0.00 0.00 51 1011.7
20260503212504 64 351 2.0 4.0 0.00 0.00 0.00 51 1011.7
20260503212405 64 349 2.0 4.0 0.00 0.00 0.00 51 1011.9
20260503212305 64 348 3.0 4.0 0.00 0.00 0.00 51 1011.8
20260503212203 64 352 2.0 4.0 0.00 0.00 0.00 51 1012.0
20260503212116 64 352 2.0 4.0 0.00 0.00 0.00 51 1012.0
20260503212105 64 355 2.0 4.0 0.00 0.00 0.00 51 1012.0
20260503212004 64 3 2.0 6.0 0.00 0.00 0.00 51 1012.0
20260503211804 64 4 2.0 6.0 0.00 0.00 0.00 51 1011.8
20260503211704 64 4 2.0 6.0 0.00 0.00 0.00 51 1012.0
20260503211604 64 1 2.0 6.0 0.00 0.00 0.00 51 1011.9
20260503211503 64 360 2.0 4.0 0.00 0.00 0.00 50 1011.9
20260503211404 64 360 2.0 4.0 0.00 0.00 0.00 50 1011.9
20260503211304 64 360 2.0 4.0 0.00 0.00 0.00 50 1011.7
20260503211205 64 355 3.0 6.0 0.00 0.00 0.00 50 1011.9
20260503211104 64 353 1.0 6.0 0.00 0.00 0.00 50 1011.8
20260503211003 64 351 3.0 6.0 0.00 0.00 0.00 50 1011.7
20260503210905 64 348 2.0 6.0 0.00 0.00 0.00 50 1012.0
20260503210805 64 348 2.0 6.0 0.00 0.00 0.00 50 1011.7
20260503210717 65 355 3.0 6.0 0.00 0.00 0.00 50 1011.8
20260503210703 65 355 3.0 4.0 0.00 0.00 0.00 50 1011.8
20260503210605 65 352 2.0 4.0 0.00 0.00 0.00 49 1011.7
20260503210405 65 6 3.0 4.0 0.00 0.00 0.00 49 1011.8
20260503210316 65 6 2.0 4.0 0.00 0.00 0.00 49 1011.6
20260503210304 65 6 2.0 4.0 0.00 0.00 0.00 49 1011.7
20260503210204 65 2 3.0 4.0 0.00 0.00 0.00 48 1011.7
20260503210006 65 7 2.0 6.0 0.00 0.00 0.00 48 1011.9
20260503205904 65 349 3.0 8.0 0.00 0.00 0.00 48 1011.8
20260503205804 65 347 2.0 8.0 0.00 0.00 0.00 48 1011.8
20260503205703 65 353 2.0 8.0 0.00 0.00 0.00 47 1011.7
20260503205605 65 3 2.0 9.0 0.00 0.00 0.00 48 1011.5
20260503205404 65 11 4.0 11.0 0.00 0.00 0.00 47 1011.8
20260503205305 65 12 4.0 11.0 0.00 0.00 0.00 47 1011.9
20260503205205 65 13 4.0 11.0 0.00 0.00 0.00 47 1011.8
20260503205103 65 10 5.0 11.0 0.00 0.00 0.00 47 1011.8
20260503205003 65 11 7.0 11.0 0.00 0.00 0.00 46 1011.9
20260503204903 65 8 4.0 9.0 0.00 0.00 0.00 46 1011.9
20260503204805 66 11 4.0 6.0 0.00 0.00 0.00 47 1011.9
20260503204705 66 8 2.0 4.0 0.00 0.00 0.00 47 1011.6
20260503204603 66 6 2.0 8.0 0.00 0.00 0.00 47 1011.7
20260503204503 66 358 2.0 8.0 0.00 0.00 0.00 47 1011.8
20260503204313 66 358 3.0 8.0 0.00 0.00 0.00 47 1011.9
20260503204305 66 358 2.0 8.0 0.00 0.00 0.00 46 1011.9
20260503204205 66 354 3.0 8.0 0.00 0.00 0.00 47 1011.6
20260503204007 66 358 2.0 11.0 0.00 0.00 0.00 46 1011.7
20260503203904 66 1 4.0 11.0 0.00 0.00 0.00 46 1011.7
20260503203803 66 360 4.0 11.0 0.00 0.00 0.00 45 1011.7
20260503203703 66 1 2.0 11.0 0.00 0.00 0.00 45 1011.6
20260503203603 66 359 2.0 11.0 0.00 0.00 0.00 45 1011.7
20260503203503 66 348 3.0 9.0 0.00 0.00 0.00 45 1012.0
20260503203403 66 341 4.0 9.0 0.00 0.00 0.00 44 1011.8
20260503203305 66 347 4.0 11.0 0.00 0.00 0.00 44 1011.9
20260503203205 66 348 4.0 11.0 0.00 0.00 0.00 44 1012.0
20260503203103 66 354 4.0 11.0 0.00 0.00 0.00 44 1012.2
20260503202905 66 351 4.0 11.0 0.00 0.00 0.00 44 1012.0
20260503202806 66 348 8.0 11.0 0.00 0.00 0.00 44 1011.9
20260503202704 66 350 2.0 9.0 0.00 0.00 0.00 44 1012.1
20260503202605 66 348 4.0 9.0 0.00 0.00 0.00 44 1011.9
20260503202503 66 349 5.0 9.0 0.00 0.00 0.00 44 1011.8
20260503202416 66 359 7.0 9.0 0.00 0.00 0.00 44 1012.3
20260503202404 66 2 7.0 9.0 0.00 0.00 0.00 44 1012.3
20260503202305 66 5 4.0 7.0 0.00 0.00 0.00 44 1011.9
20260503202105 66 357 4.0 7.0 0.00 0.00 0.00 43 1012.2
20260503202004 67 7 2.0 7.0 0.00 0.00 0.00 43 1012.1
20260503201904 67 352 2.0 11.0 0.00 0.00 0.00 43 1012.2
20260503201805 67 345 3.0 11.0 0.00 0.00 0.00 44 1012.0
20260503201705 67 345 2.0 11.0 0.00 0.00 0.00 43 1012.0
20260503201604 66 340 4.0 11.0 0.00 0.00 0.00 43 1011.9
20260503201504 66 333 4.0 11.0 0.00 0.00 0.00 43 1011.9
20260503201415 66 333 6.0 11.0 0.00 0.00 0.00 43 1012.0
20260503201305 66 341 5.0 9.0 0.00 0.00 0.00 43 1012.1
20260503201203 66 341 4.0 9.0 0.00 0.00 0.00 43 1012.1
20260503201104 67 348 4.0 11.0 0.00 0.00 0.00 42 1012.1
20260503201004 67 350 4.0 11.0 0.00 0.00 0.00 42 1012.3
20260503200905 67 4 4.0 11.0 0.00 0.00 0.00 42 1012.2
20260503200805 67 11 3.0 11.0 0.00 0.00 0.00 42 1012.1
20260503200704 67 11 6.0 11.0 0.00 0.00 0.00 42 1012.4
20260503200604 67 9 2.0 11.0 0.00 0.00 0.00 42 1012.3
20260503200503 67 16 3.0 11.0 0.00 0.00 0.00 43 1012.4
20260503200404 67 13 5.0 11.0 0.00 0.00 0.00 42 1012.2
20260503200303 67 360 6.0 11.0 0.00 0.00 0.00 42 1012.4
20260503200206 67 358 4.0 9.0 0.00 0.00 0.00 42 1012.3
20260503200104 67 358 3.0 8.0 0.00 0.00 0.00 43 1012.4
20260503200005 67 355 4.0 8.0 0.00 0.00 0.00 42 1012.7
20260503195903 67 345 4.0 8.0 0.00 0.00 0.00 42 1012.4
20260503195815 67 349 4.0 8.0 0.00 0.00 0.00 42 1012.6
20260503195705 67 356 3.0 8.0 0.00 0.00 0.00 42 1012.3
20260503195617 67 358 2.0 8.0 0.00 0.00 0.00 43 1012.3
20260503195304 67 358 4.0 8.0 0.00 0.00 0.00 42 1012.6
20260503195203 67 353 3.0 8.0 0.00 0.00 0.00 42 1012.5
20260503195104 67 359 4.0 8.0 0.00 0.00 0.00 42 1012.6
20260503195010 67 1 3.0 7.0 0.00 0.00 0.00 41 1012.5
20260503194903 67 9 4.0 7.0 0.00 0.00 0.00 42 1012.6
20260503194803 67 10 3.0 7.0 0.00 0.00 0.00 41 1012.8
20260503194703 67 11 3.0 9.0 0.00 0.00 0.00 41 1012.5
20260503194603 67 11 3.0 9.0 0.00 0.00 0.00 42 1012.6
20260503194503 67 360 2.0 9.0 0.00 0.00 0.00 41 1012.4
20260503194404 67 357 4.0 9.0 0.00 0.00 0.00 42 1012.5
20260503194304 67 355 5.0 9.0 0.00 0.00 0.00 41 1012.6
20260503194103 67 345 4.0 8.0 0.00 0.00 0.00 42 1012.6
20260503194004 67 344 4.0 8.0 0.00 0.00 0.00 41 1012.6
20260503193904 68 342 4.0 8.0 0.00 0.00 0.00 41 1012.6
20260503193804 68 343 4.0 8.0 0.00 0.00 0.00 41 1012.6
20260503193706 68 356 5.0 8.0 0.00 0.00 0.00 40 1012.4
20260503193614 68 356 1.0 8.0 0.00 0.00 0.00 41 1012.7
20260503193504 67 354 2.0 9.0 0.00 0.00 0.00 42 1012.7
20260503193305 67 5 4.0 9.0 0.00 0.00 0.00 42 1012.6
20260503193205 67 358 5.0 9.0 0.00 0.00 0.00 42 1012.6
20260503193109 67 358 4.0 9.0 0.00 0.00 0.00 42 1012.6
20260503193004 67 3 6.0 9.0 0.00 0.00 0.00 42 1012.9
20260503192905 67 357 4.0 9.0 0.00 0.00 0.00 42 1012.7
20260503192818 67 355 6.0 9.0 0.00 0.00 0.00 42 1012.8
20260503192805 67 354 6.0 9.0 0.00 0.00 0.00 42 1012.8
20260503192705 67 358 4.0 9.0 0.00 0.00 0.00 41 1012.8
20260503192519 67 3 4.0 9.0 0.00 0.00 0.00 41 1012.7
20260503192504 67 2 4.0 9.0 0.00 0.00 0.00 41 1012.7
20260503192417 67 3 3.0 9.0 0.00 0.00 0.00 41 1012.7
20260503192404 67 4 3.0 9.0 0.00 0.00 0.00 41 1012.7
20260503192104 68 12 3.0 9.0 0.00 0.00 0.00 40 1012.9
20260503192004 69 13 2.0 7.0 0.00 0.00 0.00 40 1012.7
20260503191915 68 11 2.0 7.0 0.00 0.00 0.00 40 1012.8
20260503191905 68 10 2.0 7.0 0.00 0.00 0.00 40 1012.9
20260503191804 69 1 2.0 11.0 0.00 0.00 0.00 40 1012.8
20260503191604 68 353 1.0 14.0 0.00 0.00 0.00 42 1012.5
20260503191507 67 352 1.0 14.0 0.00 0.00 0.00 42 1012.9
20260503191404 66 352 4.0 14.0 0.00 0.00 0.00 42 1013.2
20260503191304 66 357 8.0 14.0 0.00 0.00 0.00 42 1013.1
20260503191205 66 3 7.0 14.0 0.00 0.00 0.00 41 1012.9
20260503191104 67 355 5.0 15.0 0.00 0.00 0.00 41 1012.8
20260503191006 68 344 2.0 15.0 0.00 0.00 0.00 42 1013.0
20260503190904 67 341 4.0 15.0 0.00 0.00 0.00 42 1012.9
20260503190804 67 333 3.0 15.0 0.00 0.00 0.00 43 1012.8
20260503190705 66 333 9.0 15.0 0.00 0.00 0.00 42 1013.2
20260503190604 66 332 6.0 14.0 0.00 0.00 0.00 42 1013.0
20260503190507 66 348 7.0 14.0 0.00 0.00 0.00 42 1013.1
20260503190404 66 344 8.0 11.0 0.00 0.00 0.00 41 1013.0
20260503190318 67 346 4.0 11.0 0.00 0.00 0.00 41 1013.1
20260503190304 67 348 4.0 11.0 0.00 0.00 0.00 42 1013.0
20260503190205 67 347 4.0 11.0 0.00 0.00 0.00 42 1013.0
20260503185905 67 357 4.0 11.0 0.00 0.00 0.00 41 1013.0
20260503185804 67 6 4.0 11.0 0.00 0.00 0.00 41 1013.1
20260503185703 67 7 3.0 11.0 0.00 0.00 0.00 42 1013.0
20260503185618 67 9 5.0 11.0 0.00 0.00 0.00 42 1013.2
20260503185603 67 10 5.0 11.0 0.00 0.00 0.00 42 1013.2
20260503185504 67 5 4.0 11.0 0.00 0.00 0.00 43 1013.3
20260503185415 66 11 7.0 11.0 0.00 0.00 0.00 42 1013.3
20260503185305 67 11 6.0 11.0 0.00 0.00 0.00 43 1013.0
20260503185105 67 20 5.0 8.0 0.00 0.00 0.00 42 1013.1
20260503185003 67 14 2.0 8.0 0.00 0.00 0.00 42 1013.0
20260503184903 67 360 4.0 8.0 0.00 0.00 0.00 42 1013.2
20260503184805 66 351 4.0 8.0 0.00 0.00 0.00 42 1013.1
20260503184709 66 343 5.0 8.0 0.00 0.00 0.00 43 1013.1
20260503184603 66 343 7.0 8.0 0.00 0.00 0.00 41 1013.2
20260503184505 67 354 5.0 8.0 0.00 0.00 0.00 41 1013.4
20260503184404 68 358 2.0 7.0 0.00 0.00 0.00 41 1013.2
20260503184305 67 357 3.0 7.0 0.00 0.00 0.00 42 1013.2
20260503184204 68 358 4.0 9.0 0.00 0.00 0.00 41 1013.3
20260503184104 68 356 2.0 9.0 0.00 0.00 0.00 42 1013.2
20260503184004 68 344 2.0 9.0 0.00 0.00 0.00 43 1013.3
20260503183919 67 350 3.0 9.0 0.00 0.00 0.00 43 1013.3
20260503183904 67 351 3.0 9.0 0.00 0.00 0.00 43 1013.3
20260503183804 67 357 4.0 9.0 0.00 0.00 0.00 42 1013.2
20260503183603 67 14 2.0 11.0 0.00 0.00 0.00 43 1013.3
20260503183504 67 22 4.0 11.0 0.00 0.00 0.00 43 1013.4
20260503183405 67 10 2.0 11.0 0.00 0.00 0.00 43 1013.1
20260503183303 67 353 2.0 11.0 0.00 0.00 0.00 43 1013.3
20260503183204 67 342 4.0 11.0 0.00 0.00 0.00 43 1013.3
20260503183104 67 334 4.0 11.0 0.00 0.00 0.00 42 1013.3
20260503183006 66 330 5.0 11.0 0.00 0.00 0.00 43 1013.4
20260503182904 66 330 6.0 11.0 0.00 0.00 0.00 43 1013.4
20260503182704 66 338 5.0 11.0 0.00 0.00 0.00 43 1013.6
20260503182605 67 341 3.0 11.0 0.00 0.00 0.00 43 1013.8
20260503182503 66 357 3.0 11.0 0.00 0.00 0.00 43 1013.6
20260503182404 66 4 6.0 11.0 0.00 0.00 0.00 43 1013.7
20260503182205 66 6 6.0 13.0 0.00 0.00 0.00 43 1013.6
20260503182103 66 9 6.0 13.0 0.00 0.00 0.00 43 1013.6
20260503182007 66 350 6.0 13.0 0.00 0.00 0.00 43 1013.6
20260503181904 66 341 8.0 13.0 0.00 0.00 0.00 43 1013.7
20260503181804 67 348 2.0 11.0 0.00 0.00 0.00 44 1013.7
20260503181707 66 344 3.0 11.0 0.00 0.00 0.00 44 1013.6
20260503181604 65 344 5.0 11.0 0.00 0.00 0.00 44 1013.6
20260503181505 67 356 4.0 11.0 0.00 0.00 0.00 43 1013.6
20260503181408 67 1 4.0 11.0 0.00 0.00 0.00 43 1013.8
20260503181304 67 6 4.0 11.0 0.00 0.00 0.00 44 1013.7
20260503181205 67 357 2.0 11.0 0.00 0.00 0.00 44 1013.7
20260503181103 66 356 4.0 11.0 0.00 0.00 0.00 43 1013.7
20260503181005 66 353 5.0 11.0 0.00 0.00 0.00 43 1013.7
20260503180905 66 353 5.0 11.0 0.00 0.00 0.00 43 1013.6
20260503180805 66 344 6.0 11.0 0.00 0.00 0.00 44 1014.0
20260503180703 66 346 6.0 11.0 0.00 0.00 0.00 43 1013.9
20260503180603 67 340 4.0 11.0 0.00 0.00 0.00 43 1014.0
20260503180503 66 339 4.0 11.0 0.00 0.00 0.00 43 1014.2
20260503180404 66 336 6.0 11.0 0.00 0.00 0.00 42 1014.0
20260503180305 67 345 2.0 8.0 0.00 0.00 0.00 43 1014.0
20260503180203 67 344 4.0 8.0 0.00 0.00 0.00 43 1014.0
20260503180104 67 354 3.0 8.0 0.00 0.00 0.00 44 1014.0
20260503180004 67 354 2.0 8.0 0.00 0.00 0.00 44 1014.0
20260503175905 67 340 4.0 8.0 0.00 0.00 0.00 43 1014.0
20260503175705 66 345 3.0 8.0 0.00 0.00 0.00 45 1014.1
20260503175603 66 345 3.0 8.0 0.00 0.00 0.00 45 1013.9
20260503175503 66 351 4.0 11.0 0.00 0.00 0.00 44 1014.0
20260503175304 67 357 3.0 11.0 0.00 0.00 0.00 44 1014.1
20260503175218 67 1 2.0 11.0 0.00 0.00 0.00 45 1014.3
20260503175205 67 2 2.0 11.0 0.00 0.00 0.00 45 1014.3
20260503175104 65 3 5.0 11.0 0.00 0.00 0.00 46 1014.2
20260503174903 65 10 4.0 9.0 0.00 0.00 0.00 45 1014.2
20260503174804 65 7 5.0 9.0 0.00 0.00 0.00 45 1014.1
20260503174704 66 14 2.0 9.0 0.00 0.00 0.00 44 1014.2
20260503174604 65 20 4.0 11.0 0.00 0.00 0.00 44 1014.2
20260503174504 66 9 4.0 16.0 0.00 0.00 0.00 44 1014.2
20260503174403 66 350 3.0 16.0 0.00 0.00 0.00 44 1014.3
20260503174303 65 357 2.0 16.0 0.00 0.00 0.00 45 1014.3
20260503174204 65 351 4.0 16.0 0.00 0.00 0.00 45 1014.2
20260503174104 64 345 6.0 16.0 0.00 0.00 0.00 45 1014.3
20260503174005 64 340 9.0 16.0 0.00 0.00 0.00 45 1014.5
20260503173904 65 354 4.0 13.0 0.00 0.00 0.00 44 1014.4
20260503173805 65 341 6.0 14.0 0.00 0.00 0.00 45 1014.3
20260503173705 65 347 3.0 14.0 0.00 0.00 0.00 45 1014.5
20260503173604 65 340 4.0 14.0 0.00 0.00 0.00 45 1014.4
20260503173505 64 339 8.0 14.0 0.00 0.00 0.00 46 1014.5
20260503173404 64 337 7.0 14.0 0.00 0.00 0.00 46 1014.4
20260503173303 65 354 7.0 14.0 0.00 0.00 0.00 45 1014.6
20260503173203 65 354 6.0 11.0 0.00 0.00 0.00 44 1014.4
20260503173103 65 11 4.0 13.0 0.00 0.00 0.00 45 1014.5
20260503173004 65 18 2.0 14.0 0.00 0.00 0.00 45 1014.4
20260503172903 64 11 4.0 14.0 0.00 0.00 0.00 46 1014.6
20260503172803 64 3 6.0 14.0 0.00 0.00 0.00 45 1014.3
20260503172704 64 355 7.0 14.0 0.00 0.00 0.00 46 1014.7
20260503172605 64 349 8.0 14.0 0.00 0.00 0.00 46 1014.4
20260503172504 64 342 6.0 14.0 0.00 0.00 0.00 45 1014.6
20260503172405 64 348 4.0 14.0 0.00 0.00 0.00 46 1014.6
20260503172317 64 354 8.0 14.0 0.00 0.00 0.00 46 1014.6
20260503172305 64 356 6.0 13.0 0.00 0.00 0.00 46 1014.7
20260503172205 64 3 4.0 11.0 0.00 0.00 0.00 46 1014.6
20260503172003 65 19 4.0 9.0 0.00 0.00 0.00 46 1014.6
20260503171904 65 15 4.0 11.0 0.00 0.00 0.00 46 1014.4
20260503171804 65 19 5.0 11.0 0.00 0.00 0.00 46 1014.5
20260503171705 66 22 3.0 11.0 0.00 0.00 0.00 46 1014.5
20260503171605 66 10 2.0 11.0 0.00 0.00 0.00 47 1014.6
20260503171516 65 18 2.0 11.0 0.00 0.00 0.00 47 1014.7
20260503171503 65 18 4.0 11.0 0.00 0.00 0.00 47 1014.7
20260503171403 65 23 5.0 11.0 0.00 0.00 0.00 47 1014.6
20260503171205 65 17 1.0 11.0 0.00 0.00 0.00 47 1014.7
20260503171103 64 20 4.0 11.0 0.00 0.00 0.00 48 1014.8
20260503171005 64 10 4.0 16.0 0.00 0.00 0.00 48 1014.7
20260503170905 64 346 5.0 16.0 0.00 0.00 0.00 48 1015.0
20260503170806 64 350 4.0 16.0 0.00 0.00 0.00 48 1014.9
20260503170705 63 358 7.0 16.0 0.00 0.00 0.00 47 1015.0
20260503170603 64 6 5.0 16.0 0.00 0.00 0.00 47 1014.9
20260503170516 64 353 7.0 16.0 0.00 0.00 0.00 47 1014.9
20260503170503 64 359 7.0 16.0 0.00 0.00 0.00 47 1014.9
20260503170415 64 7 2.0 14.0 0.00 0.00 0.00 47 1014.9
20260503170403 64 6 2.0 14.0 0.00 0.00 0.00 47 1014.9
20260503170104 63 338 6.0 14.0 0.00 0.00 0.00 46 1015.0
20260503160205 62 346 2.0 11.0 0.00 0.00 0.00 51 1016.5
20260503160105 62 339 3.0 11.0 0.00 0.00 0.00 52 1016.6
20260503151003 59 332 5.0 11.0 0.00 0.00 0.00 55 1018.1
20260503150903 59 327 6.0 11.0 0.00 0.00 0.00 54 1018.2
20260503150804 58 321 6.0 11.0 0.00 0.00 0.00 54 1018.1
20260503150721 58 324 6.0 11.0 0.00 0.00 0.00 55 1018.2
20260503150703 58 329 5.0 18.0 0.00 0.00 0.00 55 1018.1
20260503150603 58 340 5.0 18.0 0.00 0.00 0.00 55 1018.1
20260503150417 58 358 8.0 18.0 0.00 0.00 0.00 55 1018.3
20260503150405 58 2 8.0 18.0 0.00 0.00 0.00 55 1018.3
20260503150303 58 15 6.0 18.0 0.00 0.00 0.00 55 1018.4
20260503150105 58 360 6.0 13.0 0.00 0.00 0.00 55 1018.1
20260503140303 57 360 3.0 8.0 0.00 0.00 0.00 59 1019.8
20260503140205 57 2 2.0 8.0 0.00 0.00 0.00 59 1019.6
20260503140113 56 359 4.0 8.0 0.00 0.00 0.00 59 1019.8
20260503131404 53 24 4.0 11.0 0.00 0.00 0.00 69 1020.2
20260503131303 53 28 6.0 11.0 0.00 0.00 0.00 69 1020.3
20260503131203 53 18 5.0 11.0 0.00 0.00 0.00 68 1020.5
20260503131103 53 354 6.0 11.0 0.00 0.00 0.00 68 1020.2
20260503131017 53 348 6.0 11.0 0.00 0.00 0.00 68 1020.2
20260503131004 53 347 4.0 11.0 0.00 0.00 0.00 68 1020.3
20260503130903 53 338 3.0 11.0 0.00 0.00 0.00 68 1020.3
20260503130703 53 334 5.0 11.0 0.00 0.00 0.00 67 1020.1
20260503130603 53 342 5.0 11.0 0.00 0.00 0.00 67 1020.3
20260503130503 53 355 4.0 9.0 0.00 0.00 0.00 68 1020.2
20260503130403 53 9 5.0 9.0 0.00 0.00 0.00 68 1020.1
20260503130305 53 13 4.0 9.0 0.00 0.00 0.00 68 1020.3
20260503130204 53 7 4.0 11.0 0.00 0.00 0.00 68 1020.1
20260503130105 53 1 5.0 11.0 0.00 0.00 0.00 67 1020.2
20260503120103 47 3 2.0 8.0 0.00 0.00 0.00 79 1019.6
20260503110804 45 49 1.0 4.0 0.00 0.00 0.00 83 1019.9
20260503110703 45 50 1.0 4.0 0.00 0.00 0.00 83 1019.8
20260503110606 45 52 1.0 4.0 0.00 0.00 0.00 83 1019.9
20260503110516 45 52 0.0 4.0 0.00 0.00 0.00 83 1019.9
20260503110504 45 55 0.0 4.0 0.00 0.00 0.00 83 1019.9
20260503110207 44 65 0.0 4.0 0.00 0.00 0.00 83 1019.8
20260503110104 44 54 0.0 4.0 0.00 0.00 0.00 83 1019.7
20260503100205 46 32 2.0 6.0 0.00 0.00 0.00 77 1020.1
20260503100103 46 24 2.0 6.0 0.00 0.00 0.00 77 1019.9
20260503090505 46 0 0.0 0.0 0.00 0.00 0.00 84 1020.2
20260503090404 46 0 0.0 0.0 0.00 0.00 0.00 84 1020.5
20260503090303 46 0 0.0 0.0 0.00 0.00 0.00 84 1020.5
20260503090205 46 0 0.0 0.0 0.00 0.00 0.00 84 1020.3
20260503081504 46 0 0.0 0.0 0.00 0.00 0.00 83 1021.1
20260503081404 46 67 0.0 2.0 0.00 0.00 0.00 83 1021.2
20260503081314 46 67 0.0 2.0 0.00 0.00 0.00 83 1021.0
20260503081217 46 63 0.0 2.0 0.00 0.00 0.00 83 1021.5
20260503081205 46 61 0.0 2.0 0.00 0.00 0.00 83 1021.5
20260503081116 46 58 0.0 2.0 0.00 0.00 0.00 83 1021.2
20260503080913 46 61 1.0 2.0 0.00 0.00 0.00 83 1021.2
20260503080805 46 61 1.0 2.0 0.00 0.00 0.00 83 1021.1
20260503080605 46 59 0.0 4.0 0.00 0.00 0.00 83 1021.3
20260503080504 46 65 1.0 4.0 0.00 0.00 0.00 83 1021.2
20260503080405 46 67 1.0 4.0 0.00 0.00 0.00 82 1021.5
20260503080304 46 67 1.0 4.0 0.00 0.00 0.00 82 1021.4
20260503080205 46 71 2.0 4.0 0.00 0.00 0.00 82 1021.4
20260503080117 46 84 1.0 4.0 0.00 0.00 0.00 82 1021.5
20260503080104 46 83 1.0 4.0 0.00 0.00 0.00 82 1021.5
20260503072904 47 66 2.0 4.0 0.00 0.00 0.00 78 1021.7
20260503072805 46 64 2.0 4.0 0.00 0.00 0.00 78 1021.7
20260503072704 46 69 2.0 4.0 0.00 0.00 0.00 78 1021.8
20260503072604 47 63 2.0 4.0 0.00 0.00 0.00 78 1021.9
20260503072504 47 58 2.0 4.0 0.00 0.00 0.00 78 1021.6
20260503072405 47 54 2.0 4.0 0.00 0.00 0.00 78 1021.8
20260503072306 47 61 2.0 4.0 0.00 0.00 0.00 77 1021.8
20260503072204 47 58 2.0 4.0 0.00 0.00 0.00 77 1021.8
20260503072103 47 63 2.0 6.0 0.00 0.00 0.00 77 1021.7
20260503072004 47 65 2.0 6.0 0.00 0.00 0.00 77 1022.1
20260503071905 47 64 2.0 6.0 0.00 0.00 0.00 77 1021.9
20260503071805 47 55 1.0 6.0 0.00 0.00 0.00 77 1021.8
20260503071704 47 56 2.0 6.0 0.00 0.00 0.00 76 1021.8
20260503071603 47 46 2.0 6.0 0.00 0.00 0.00 76 1021.6
20260503071503 47 50 2.0 4.0 0.00 0.00 0.00 76 1021.8
20260503071403 47 50 0.0 4.0 0.00 0.00 0.00 76 1022.2
20260503071305 47 49 2.0 4.0 0.00 0.00 0.00 76 1022.0
20260503071204 47 48 2.0 4.0 0.00 0.00 0.00 75 1022.0
20260503071103 47 60 2.0 4.0 0.00 0.00 0.00 75 1022.1
20260503071003 47 53 3.0 4.0 0.00 0.00 0.00 75 1022.1
20260503070907 47 53 3.0 4.0 0.00 0.00 0.00 75 1022.1
20260503070803 47 62 2.0 4.0 0.00 0.00 0.00 75 1022.1
20260503070703 47 67 2.0 4.0 0.00 0.00 0.00 74 1022.2
20260503070604 47 60 2.0 4.0 0.00 0.00 0.00 74 1022.0
20260503070504 47 54 3.0 4.0 0.00 0.00 0.00 74 1022.1
20260503070408 47 65 2.0 6.0 0.00 0.00 0.00 74 1022.0
20260503070303 47 66 2.0 6.0 0.00 0.00 0.00 74 1022.3
20260503070214 47 67 1.0 6.0 0.00 0.00 0.00 74 1022.1
20260503070103 47 67 2.0 6.0 0.00 0.00 0.00 74 1022.1
20260503060303 49 55 2.0 4.0 0.00 0.00 0.00 68 1023.1
20260503060214 49 54 1.0 4.0 0.00 0.00 0.00 68 1023.0
20260503060105 49 57 0.0 4.0 0.00 0.00 0.00 68 1023.0
20260503055106 49 80 0.0 4.0 0.00 0.00 0.00 67 1022.9
20260503055004 50 77 1.0 4.0 0.00 0.00 0.00 67 1023.1
20260503054905 50 65 2.0 4.0 0.00 0.00 0.00 67 1022.9
20260503054804 50 64 2.0 4.0 0.00 0.00 0.00 66 1023.2
20260503054704 49 63 3.0 4.0 0.00 0.00 0.00 67 1023.1
20260503054604 49 71 1.0 4.0 0.00 0.00 0.00 67 1023.2
20260503054504 49 66 2.0 4.0 0.00 0.00 0.00 67 1023.0
20260503054405 49 78 2.0 4.0 0.00 0.00 0.00 67 1023.1
20260503054305 50 74 2.0 4.0 0.00 0.00 0.00 67 1022.9
20260503054217 50 66 2.0 4.0 0.00 0.00 0.00 67 1023.3
20260503054204 50 64 1.0 4.0 0.00 0.00 0.00 67 1023.2
20260503053904 50 78 2.0 4.0 0.00 0.00 0.00 66 1023.2
20260503053805 50 77 1.0 4.0 0.00 0.00 0.00 67 1023.0
20260503053703 50 83 2.0 4.0 0.00 0.00 0.00 66 1023.0
20260503053618 50 88 2.0 4.0 0.00 0.00 0.00 67 1023.1
20260503053605 50 89 2.0 4.0 0.00 0.00 0.00 67 1023.1
20260503053504 50 82 2.0 4.0 0.00 0.00 0.00 67 1023.2
20260503053304 49 78 1.0 6.0 0.00 0.00 0.00 67 1023.2
20260503053203 50 77 2.0 6.0 0.00 0.00 0.00 67 1022.9
20260503053105 49 79 2.0 6.0 0.00 0.00 0.00 67 1023.4
20260503053004 49 79 2.0 6.0 0.00 0.00 0.00 68 1023.4
20260503052904 49 87 2.0 4.0 0.00 0.00 0.00 68 1023.3
20260503052803 49 91 1.0 4.0 0.00 0.00 0.00 68 1023.4
20260503052705 49 93 1.0 4.0 0.00 0.00 0.00 68 1023.4
20260503052604 49 85 1.0 6.0 0.00 0.00 0.00 69 1023.2
20260503052513 49 91 2.0 6.0 0.00 0.00 0.00 69 1023.4
20260503052503 49 90 2.0 6.0 0.00 0.00 0.00 69 1023.4
20260503052403 49 85 1.0 6.0 0.00 0.00 0.00 69 1023.4
20260503052204 49 75 2.0 6.0 0.00 0.00 0.00 69 1023.5
20260503052117 49 76 1.0 6.0 0.00 0.00 0.00 70 1023.4
20260503052103 49 70 1.0 6.0 0.00 0.00 0.00 70 1023.4
20260503052004 49 57 0.0 2.0 0.00 0.00 0.00 70 1023.4
20260503051803 49 70 1.0 2.0 0.00 0.00 0.00 70 1023.5
20260503051703 49 69 0.0 2.0 0.00 0.00 0.00 70 1023.5
20260503051603 49 64 0.0 2.0 0.00 0.00 0.00 70 1023.4
20260503051505 49 55 0.0 4.0 0.00 0.00 0.00 70 1023.4
20260503051403 49 54 0.0 4.0 0.00 0.00 0.00 70 1023.3
20260503051303 49 51 0.0 4.0 0.00 0.00 0.00 70 1023.7
20260503051205 49 51 1.0 4.0 0.00 0.00 0.00 69 1023.5
20260503051118 49 53 0.0 4.0 0.00 0.00 0.00 70 1023.5
20260503051103 49 55 2.0 4.0 0.00 0.00 0.00 69 1023.8
20260503051003 49 62 1.0 4.0 0.00 0.00 0.00 70 1023.4
20260503050915 49 65 2.0 4.0 0.00 0.00 0.00 70 1023.6
20260503050803 49 73 1.0 4.0 0.00 0.00 0.00 70 1023.5
20260503050603 49 81 1.0 2.0 0.00 0.00 0.00 70 1023.5
20260503050503 49 78 0.0 4.0 0.00 0.00 0.00 70 1023.6
20260503050403 49 72 1.0 4.0 0.00 0.00 0.00 70 1023.5
20260503050303 49 65 2.0 4.0 0.00 0.00 0.00 70 1023.7
20260503050203 49 64 1.0 4.0 0.00 0.00 0.00 69 1023.6
20260503050006 49 59 2.0 4.0 0.00 0.00 0.00 69 1023.4
20260503045905 49 63 1.0 4.0 0.00 0.00 0.00 70 1023.7
20260503045804 49 73 1.0 2.0 0.00 0.00 0.00 70 1023.7
20260503045704 49 72 1.0 2.0 0.00 0.00 0.00 70 1023.7
20260503045605 49 84 1.0 2.0 0.00 0.00 0.00 70 1023.5
20260503045504 49 84 1.0 2.0 0.00 0.00 0.00 70 1023.7
20260503045404 49 69 0.0 2.0 0.00 0.00 0.00 70 1023.6
20260503045307 49 65 0.0 2.0 0.00 0.00 0.00 70 1023.7
20260503045204 49 64 1.0 2.0 0.00 0.00 0.00 70 1023.7
20260503045104 50 65 2.0 4.0 0.00 0.00 0.00 70 1023.5
20260503045004 50 63 2.0 4.0 0.00 0.00 0.00 70 1023.6
20260503044905 50 67 1.0 4.0 0.00 0.00 0.00 70 1023.7
20260503044804 50 57 1.0 4.0 0.00 0.00 0.00 70 1023.7
20260503044714 50 53 1.0 4.0 0.00 0.00 0.00 70 1023.7
20260503044703 50 52 1.0 4.0 0.00 0.00 0.00 69 1023.8
20260503044605 50 39 1.0 4.0 0.00 0.00 0.00 69 1023.9
20260503044405 50 29 1.0 4.0 0.00 0.00 0.00 68 1023.6
20260503044303 50 30 2.0 4.0 0.00 0.00 0.00 68 1023.6
20260503044204 50 30 2.0 4.0 0.00 0.00 0.00 68 1023.7
20260503044104 50 35 2.0 4.0 0.00 0.00 0.00 68 1023.8
20260503044014 50 53 1.0 4.0 0.00 0.00 0.00 68 1023.7
20260503044004 50 54 1.0 4.0 0.00 0.00 0.00 68 1023.7
20260503043918 50 64 1.0 4.0 0.00 0.00 0.00 68 1023.9
20260503043903 50 66 1.0 4.0 0.00 0.00 0.00 68 1023.7
20260503043816 50 66 1.0 4.0 0.00 0.00 0.00 68 1023.7
20260503043510 50 74 1.0 4.0 0.00 0.00 0.00 67 1023.6
20260503043408 51 65 1.0 4.0 0.00 0.00 0.00 67 1023.5
20260503043303 51 60 1.0 4.0 0.00 0.00 0.00 67 1023.7
20260503043204 51 52 1.0 4.0 0.00 0.00 0.00 67 1023.7
20260503043103 51 50 2.0 4.0 0.00 0.00 0.00 67 1023.8
20260503043003 51 45 2.0 4.0 0.00 0.00 0.00 67 1023.7
20260503042903 51 45 1.0 4.0 0.00 0.00 0.00 67 1023.8
20260503042818 51 46 2.0 4.0 0.00 0.00 0.00 67 1023.8
20260503042805 51 48 2.0 4.0 0.00 0.00 0.00 67 1023.8
20260503042705 51 50 2.0 4.0 0.00 0.00 0.00 67 1023.9
20260503042513 51 38 2.0 4.0 0.00 0.00 0.00 68 1023.9
20260503042505 51 37 2.0 4.0 0.00 0.00 0.00 68 1023.9
20260503042405 51 32 2.0 4.0 0.00 0.00 0.00 68 1023.9
20260503042205 51 360 0.0 2.0 0.00 0.00 0.00 68 1023.8
20260503042105 51 360 1.0 2.0 0.00 0.00 0.00 68 1023.8
20260503042004 51 0 0.0 0.0 0.00 0.00 0.00 68 1023.6
20260503041903 51 0 0.0 0.0 0.00 0.00 0.00 68 1023.9
20260503041803 51 0 0.0 0.0 0.00 0.00 0.00 68 1023.9
20260503041709 51 0 0.0 0.0 0.00 0.00 0.00 68 1024.0
20260503041604 51 0 0.0 0.0 0.00 0.00 0.00 68 1023.6
20260503041503 51 0 0.0 0.0 0.00 0.00 0.00 67 1023.9
20260503041403 51 0 0.0 0.0 0.00 0.00 0.00 68 1023.9
20260503041305 51 0 0.0 0.0 0.00 0.00 0.00 68 1023.9
20260503041203 51 0 0.0 0.0 0.00 0.00 0.00 68 1024.0
20260503040903 51 0 0.0 0.0 0.00 0.00 0.00 68 1024.0
20260503040703 51 0 0.0 0.0 0.00 0.00 0.00 68 1023.9
20260503040604 51 0 0.0 0.0 0.00 0.00 0.00 68 1023.9
20260503040505 51 0 0.0 0.0 0.00 0.00 0.00 69 1023.9
20260503040404 51 0 0.0 0.0 0.00 0.00 0.00 69 1023.9
20260503040304 51 0 0.0 0.0 0.00 0.00 0.00 69 1024.0
20260503040204 51 0 0.0 0.0 0.00 0.00 0.00 69 1023.8
20260503040104 50 0 0.0 0.0 0.00 0.00 0.00 69 1023.8
20260503040005 50 0 0.0 0.0 0.00 0.00 0.00 70 1024.0
20260503035909 50 0 0.0 0.0 0.00 0.00 0.00 71 1024.0
20260503035816 50 0 0.0 0.0 0.00 0.00 0.00 71 1024.0
20260503035705 50 0 0.0 0.0 0.00 0.00 0.00 71 1024.0
20260503035504 49 0 0.0 0.0 0.00 0.00 0.00 72 1024.1
20260503035404 49 0 0.0 0.0 0.00 0.00 0.00 72 1024.1
20260503035305 49 0 0.0 0.0 0.00 0.00 0.00 72 1024.2
20260503035204 49 0 0.0 0.0 0.00 0.00 0.00 72 1024.4
20260503035104 49 0 0.0 0.0 0.00 0.00 0.00 72 1024.1
20260503035004 49 0 0.0 0.0 0.00 0.00 0.00 72 1024.1
20260503034905 49 0 0.0 0.0 0.00 0.00 0.00 72 1024.1
20260503034708 49 0 0.0 0.0 0.00 0.00 0.00 72 1024.2
20260503034605 49 0 0.0 0.0 0.00 0.00 0.00 71 1024.2
20260503034504 49 0 0.0 0.0 0.00 0.00 0.00 71 1024.2
20260503034404 49 0 0.0 0.0 0.00 0.00 0.00 70 1024.5
20260503034204 49 0 0.0 0.0 0.00 0.00 0.00 71 1024.4
20260503034103 49 0 0.0 0.0 0.00 0.00 0.00 71 1024.2
20260503034003 49 0 0.0 0.0 0.00 0.00 0.00 71 1024.2
20260503033803 49 0 0.0 0.0 0.00 0.00 0.00 70 1024.3
20260503033703 49 0 0.0 0.0 0.00 0.00 0.00 70 1024.3
20260503033604 49 0 0.0 0.0 0.00 0.00 0.00 70 1024.3
20260503033503 49 0 0.0 0.0 0.00 0.00 0.00 70 1024.4
20260503033404 49 0 0.0 0.0 0.00 0.00 0.00 70 1024.5
20260503033307 49 0 0.0 0.0 0.00 0.00 0.00 70 1024.6
20260503033204 49 0 0.0 0.0 0.00 0.00 0.00 70 1024.5
20260503033105 49 0 0.0 0.0 0.00 0.00 0.00 70 1024.5
20260503033003 49 0 0.0 0.0 0.00 0.00 0.00 70 1024.4
20260503032905 49 0 0.0 0.0 0.00 0.00 0.00 70 1024.3
20260503032804 49 0 0.0 0.0 0.00 0.00 0.00 69 1024.6
20260503032605 49 0 0.0 0.0 0.00 0.00 0.00 69 1024.4
20260503032503 49 0 0.0 0.0 0.00 0.00 0.00 69 1024.5
20260503032404 49 0 0.0 0.0 0.00 0.00 0.00 69 1024.5
20260503032305 49 0 0.0 0.0 0.00 0.00 0.00 69 1024.5
20260503032003 49 0 0.0 0.0 0.00 0.00 0.00 68 1024.4
20260503031903 49 0 0.0 0.0 0.00 0.00 0.00 67 1024.4
20260503031804 49 0 0.0 0.0 0.00 0.00 0.00 67 1024.7
20260503031704 49 0 0.0 0.0 0.00 0.00 0.00 67 1024.4
20260503031603 49 0 0.0 0.0 0.00 0.00 0.00 67 1024.4
20260503031515 49 0 0.0 0.0 0.00 0.00 0.00 67 1024.7
20260503031505 49 0 0.0 0.0 0.00 0.00 0.00 67 1024.4
20260503031405 49 0 0.0 0.0 0.00 0.00 0.00 68 1024.7
20260503031312 49 0 0.0 0.0 0.00 0.00 0.00 68 1024.5
20260503031205 49 0 0.0 0.0 0.00 0.00 0.00 68 1024.9
20260503031005 49 0 0.0 0.0 0.00 0.00 0.00 69 1024.7
20260503030904 49 0 0.0 0.0 0.00 0.00 0.00 69 1024.4
20260503030804 49 0 0.0 0.0 0.00 0.00 0.00 68 1024.7
20260503030707 49 0 0.0 0.0 0.00 0.00 0.00 68 1024.5
20260503030605 49 0 0.0 0.0 0.00 0.00 0.00 68 1024.3
20260503030505 49 0 0.0 0.0 0.00 0.00 0.00 68 1024.5
20260503030407 49 0 0.0 0.0 0.00 0.00 0.00 68 1024.4
20260503030304 49 0 0.0 0.0 0.00 0.00 0.00 68 1024.5
20260503030204 49 0 0.0 0.0 0.00 0.00 0.00 68 1024.4
20260503030104 49 0 0.0 0.0 0.00 0.00 0.00 68 1024.7
20260503025804 49 0 0.0 0.0 0.00 0.00 0.00 68 1024.5
20260503025703 49 0 0.0 0.0 0.00 0.00 0.00 69 1024.5
20260503025603 49 0 0.0 0.0 0.00 0.00 0.00 68 1024.5
20260503025505 49 0 0.0 0.0 0.00 0.00 0.00 68 1024.4
20260503025404 50 0 0.0 0.0 0.00 0.00 0.00 69 1024.5
20260503025306 50 0 0.0 0.0 0.00 0.00 0.00 69 1024.5
20260503025204 50 0 0.0 0.0 0.00 0.00 0.00 69 1024.5
20260503025103 50 0 0.0 0.0 0.00 0.00 0.00 68 1024.4
20260503024903 50 0 0.0 0.0 0.00 0.00 0.00 68 1024.5
20260503024804 50 0 0.0 0.0 0.00 0.00 0.00 68 1024.8
20260503024603 50 0 0.0 0.0 0.00 0.00 0.00 68 1024.5
20260503024504 50 0 0.0 0.0 0.00 0.00 0.00 68 1024.4
20260503024404 50 0 0.0 0.0 0.00 0.00 0.00 68 1024.4
20260503024304 50 0 0.0 0.0 0.00 0.00 0.00 68 1024.6
20260503024203 50 0 0.0 0.0 0.00 0.00 0.00 68 1024.6
20260503024105 50 0 0.0 0.0 0.00 0.00 0.00 68 1024.7
20260503024005 50 0 0.0 0.0 0.00 0.00 0.00 67 1024.8
20260503023915 50 0 0.0 0.0 0.00 0.00 0.00 67 1024.7
20260503023904 50 0 0.0 0.0 0.00 0.00 0.00 66 1024.5
20260503023818 50 0 0.0 0.0 0.00 0.00 0.00 66 1024.5
20260503023805 50 0 0.0 0.0 0.00 0.00 0.00 66 1024.6
20260503023504 50 0 0.0 0.0 0.00 0.00 0.00 67 1024.7
20260503023403 50 0 0.0 0.0 0.00 0.00 0.00 67 1024.7
20260503023308 50 0 0.0 0.0 0.00 0.00 0.00 67 1024.7
20260503023204 51 0 0.0 0.0 0.00 0.00 0.00 67 1024.7
20260503023003 50 0 0.0 0.0 0.00 0.00 0.00 67 1024.7
20260503022905 50 0 0.0 0.0 0.00 0.00 0.00 66 1024.6
20260503022804 50 0 0.0 0.0 0.00 0.00 0.00 66 1024.8
20260503022703 50 0 0.0 0.0 0.00 0.00 0.00 66 1024.8
20260503022603 50 0 0.0 0.0 0.00 0.00 0.00 66 1024.7
20260503022505 50 0 0.0 0.0 0.00 0.00 0.00 66 1024.6
20260503022405 50 0 0.0 0.0 0.00 0.00 0.00 66 1024.7
20260503022317 50 0 0.0 0.0 0.00 0.00 0.00 66 1024.8
20260503022203 50 0 0.0 0.0 0.00 0.00 0.00 66 1024.6
20260503022114 50 0 0.0 0.0 0.00 0.00 0.00 65 1024.7
20260503021803 51 0 0.0 0.0 0.00 0.00 0.00 66 1024.6
20260503021703 50 0 0.0 0.0 0.00 0.00 0.00 65 1024.7
20260503021604 50 0 0.0 0.0 0.00 0.00 0.00 65 1024.5
20260503021503 51 0 0.0 0.0 0.00 0.00 0.00 65 1024.8
20260503021310 51 0 0.0 0.0 0.00 0.00 0.00 65 1024.7
20260503021204 51 0 0.0 0.0 0.00 0.00 0.00 65 1024.7
20260503021107 51 0 0.0 0.0 0.00 0.00 0.00 65 1024.8
20260503021004 51 0 0.0 0.0 0.00 0.00 0.00 65 1024.8
20260503020904 51 0 0.0 0.0 0.00 0.00 0.00 64 1024.8
20260503020804 51 0 0.0 0.0 0.00 0.00 0.00 64 1024.7
20260503020706 51 0 0.0 0.0 0.00 0.00 0.00 64 1024.5
20260503020603 51 0 0.0 0.0 0.00 0.00 0.00 65 1024.6
20260503020505 51 0 0.0 0.0 0.00 0.00 0.00 64 1024.6
20260503020405 51 0 0.0 0.0 0.00 0.00 0.00 64 1024.6
20260503020304 51 0 0.0 0.0 0.00 0.00 0.00 64 1024.9
20260503020207 51 0 0.0 0.0 0.00 0.00 0.00 64 1024.7
20260503020004 51 0 0.0 0.0 0.00 0.00 0.00 64 1024.7
20260503015904 51 0 0.0 0.0 0.00 0.00 0.00 63 1024.6
20260503015805 51 0 0.0 0.0 0.00 0.00 0.00 64 1024.6
20260503015705 51 0 0.0 0.0 0.00 0.00 0.00 64 1024.6
20260503015604 51 0 0.0 0.0 0.00 0.00 0.00 64 1024.7
20260503015513 51 0 0.0 0.0 0.00 0.00 0.00 63 1024.8
20260503015404 51 0 0.0 0.0 0.00 0.00 0.00 62 1024.8